Hourly Data Report for October 14, 2004

TORONTO CITY
ONTARIO

43°40'00.000" N
79°24'00.000" W
112.50 m
6158355
71508
XTO

Download Data

Hourly Data (October 2004)
Hourly Data Report for October 14, 2004
TIME
LST
Temp Definition
°C
Dew Point Definition
°C
Rel Hum Definition
%
Precip. Amount Definition
mm

Wind Dir Definition
10's deg

Wind Spd Definition
km/h
Visibility Definition
km
Stn Press Definition
kPa
Hmdx Definition


Wind Chill Definition


Weather Definition


00:00 13.8 9.4 75   LegendMM LegendMM LegendMM 98.78     LegendNANA
01:00 13.7 9.5 76   LegendMM LegendMM LegendMM 98.75     LegendNANA
02:00 13.1 9.0 76   LegendMM LegendMM LegendMM 98.72     LegendNANA
03:00 12.5 7.9 74   LegendMM LegendMM LegendMM 98.70     LegendNANA
04:00 12.6 8.3 75   LegendMM LegendMM LegendMM 98.65     LegendNANA
05:00 13.0 7.9 71   LegendMM LegendMM LegendMM 98.65     LegendNANA
06:00 13.1 8.5 74   LegendMM LegendMM LegendMM 98.64     LegendNANA
07:00 13.0 8.2 73   LegendMM LegendMM LegendMM 98.65     LegendNANA
08:00 12.9 8.5 75   LegendMM LegendMM LegendMM 98.69     LegendNANA
09:00 12.9 8.6 75   LegendMM LegendMM LegendMM 98.69     LegendNANA
10:00 12.6 9.6 82   LegendMM LegendMM LegendMM 98.68     LegendNANA
11:00 12.4 10.4 88   LegendMM LegendMM LegendMM 98.66     LegendNANA
12:00 12.8 10.3 85   LegendMM LegendMM LegendMM 98.61     LegendNANA
13:00 13.1 10.2 83   LegendMM LegendMM LegendMM 98.56     LegendNANA
14:00 13.3 9.9 80   LegendMM LegendMM LegendMM 98.52     LegendNANA
15:00 12.9 9.8 81   LegendMM LegendMM LegendMM 98.52     LegendNANA
16:00 12.6 10.2 85   LegendMM LegendMM LegendMM 98.54     LegendNANA
17:00 12.7 10.2 85   LegendMM LegendMM LegendMM 98.52     LegendNANA
18:00 12.5 10.4 87   LegendMM LegendMM LegendMM 98.54     LegendNANA
19:00 13.1 12.0 93   LegendMM LegendMM LegendMM 98.55     LegendNANA
20:00 13.4 12.5 94   LegendMM LegendMM LegendMM 98.57     LegendNANA
21:00 14.3 11.8 85   LegendMM LegendMM LegendMM 98.56     LegendNANA
22:00 14.3 10.8 79   LegendMM LegendMM LegendMM 98.55     LegendNANA
23:00 14.3 11.2 82   LegendMM LegendMM LegendMM 98.50     LegendNANA

Notes on Data Quality.

Legend

  • E = Estimated
  • M = Missing
  • NA = Not Available*
  • [empty] = Indicates an unobserved value
Date modified: